Find DSCS II F-8

NORAD ID: 10001 Int'l Des: 1977-034 Owner: SAMSO/DCA Country: US operational
HEOCIRCULAR

Current View

Loading 3D Globe...

About DSCS II F-8

Description loading...

Upcoming Passes

Passes for default location (London). Set your location on the main map for personalized predictions.

Altitude History

Loading altitude history...

Two-Line Element Set

1 10001U 77034B 26150.98167590 -.00000060 00000-0 00000+0 0 9998
2 10001 8.8046 299.7572 0034403 155.3537 43.4431 0.95426213117363
Epoch: May 30, 2026 • Age: 16 hours

Current Status

Altitude 37208.1 km
Velocity 3.02 km/s
Sub-Earth Point 7.81°N, 115.41°W
Launch Date May 12, 1977
Age 49 years
Type other

Technical Details

Classification Payload
Mass 612.00 kg
Dry Mass 550.00 kg
Total Mass 612.00 kg
Length 3.60 m
Diameter 2.70 m
Span 3.60 m
Shape Cyl
Manufacturer TRW
Bus Type DSCS II
Phase Status In Orbit
Owner/State SAMSO/DCA/US

Most Searched